Millbury, OH

10:43 PM EST on February 24, 2017 (GMT -0500)
Metcalf

Weather History for KTDZ - May, 2013

Change the Weather History Date:

Wednesday, May 29, 2013

  Actual Average (KTOL) Record (KTOL)
Temperature  
Mean Temperature 78 °F -  
Max Temperature 86 °F 75 °F 93 °F (1962)
Min Temperature 69 °F 51 °F 33 °F (1966)
Cooling Degree Days 14    
Growing Degree Days 28 (Base 50)    
Moisture  
Dew Point 62 °F    
Average Humidity 59    
Maximum Humidity 78    
Minimum Humidity 46    
Precipitation  
Precipitation 0.00 in - - ()
Sea Level Pressure  
Sea Level Pressure 29.96 in    
Wind  
Wind Speed 14 mph (SW)    
Max Wind Speed 22 mph    
Max Gust Speed 29 mph    
Visibility 10 miles    
Events      
Averages and records for this station are not official NWS values.
T = Trace of Precipitation, MM = Missing Value Source: NWS Daily Summary

Daily Weather History Graph

Daily Weather History Graph

Search for Another Location

Airport or City:

Trip Planner

Search our weather history database for the weather conditions in past years. The results will help you decide how hot, cold, wet, or windy it might be!

Date:

Astronomy

May. 29, 2013 Rise Set
Actual Time 6:03 AM EDT 8:59 PM EDT
Civil Twilight 5:30 AM EDT 9:32 PM EDT
Nautical Twilight 4:48 AM EDT 10:14 PM EDT
Astronomical Twilight 4:00 AM EDT 11:03 PM EDT
Moon 12:19 AM EDT (5/29) 11:03 AM EDT (5/29)
Length of Visible Light 16h 01m
Length of Day
14h 55m
Waning Gibbous, 73% of the Moon is Illuminated
May 29
Waning Gibbous
May 31
Last Quarter
Jun 8
New
Jun 16
First Quarter
Jun 23
Full

Hourly Weather History & Observations

Time (EDT) Temp. Heat Index Dew Point Humidity Pressure Visibility Wind Dir Wind Speed Gust Speed Precip Events Conditions
12:53 AM 75.0 °F - 61.0 °F 62% 29.90 in 10.0 mi SSW 16.1 mph 23.0 mph N/A   Scattered Clouds
1:53 AM 75.0 °F - 61.0 °F 62% 29.89 in 10.0 mi SSW 17.3 mph 24.2 mph N/A   Mostly Cloudy
2:53 AM 73.9 °F - 61.0 °F 64% 29.87 in 10.0 mi SSW 13.8 mph - N/A   Partly Cloudy
3:53 AM 73.0 °F - 61.0 °F 66% 29.88 in 10.0 mi SW 13.8 mph - N/A   Clear
4:53 AM 73.0 °F - 60.1 °F 64% 29.91 in 10.0 mi SW 13.8 mph 23.0 mph N/A   Clear
5:53 AM 71.1 °F - 60.1 °F 68% 29.92 in 10.0 mi SW 11.5 mph - N/A   Clear
6:53 AM 71.1 °F - 60.1 °F 68% 29.93 in 10.0 mi SSW 10.4 mph - N/A   Clear
7:53 AM 72.0 °F - 60.1 °F 66% 29.94 in 10.0 mi SSW 12.7 mph - N/A   Partly Cloudy
8:53 AM 75.0 °F - 61.0 °F 62% 29.95 in 10.0 mi SW 19.6 mph 25.3 mph N/A   Partly Cloudy
9:53 AM 77.0 °F - 62.1 °F 60% 29.96 in 10.0 mi SW 21.9 mph 28.8 mph N/A   Clear
10:53 AM 79.0 °F - 62.1 °F 56% 29.95 in 10.0 mi WSW 17.3 mph 26.5 mph N/A   Clear
11:53 AM 80.1 °F 81.5 °F 63.0 °F 56% 29.96 in 10.0 mi SW 18.4 mph - N/A   Clear
12:53 PM 81.0 °F 82.2 °F 63.0 °F 54% 29.99 in 10.0 mi West 19.6 mph 23.0 mph N/A   Clear
1:53 PM 82.0 °F 83.8 °F 64.9 °F 56% 30.00 in 10.0 mi West 16.1 mph - N/A   Clear
2:53 PM 84.9 °F 86.6 °F 64.9 °F 51% 29.99 in 10.0 mi West 18.4 mph 24.2 mph N/A   Scattered Clouds
3:53 PM 84.9 °F 86.6 °F 64.9 °F 51% 29.99 in 10.0 mi WSW 13.8 mph 23.0 mph N/A   Clear
4:53 PM 86.0 °F 86.8 °F 63.0 °F 46% 29.98 in 10.0 mi West 17.3 mph - N/A   Clear
5:53 PM 86.0 °F 86.8 °F 63.0 °F 46% 29.98 in 10.0 mi WSW 15.0 mph - N/A   Clear
6:53 PM 84.9 °F 85.9 °F 63.0 °F 48% 29.98 in 10.0 mi WSW 10.4 mph - N/A   Partly Cloudy
7:53 PM 82.9 °F 84.0 °F 63.0 °F 51% 29.97 in 10.0 mi SW 8.1 mph - N/A   Clear
8:53 PM 79.0 °F - 63.0 °F 58% 29.97 in 10.0 mi SW 4.6 mph - N/A   Clear
9:53 PM 77.0 °F - 62.1 °F 60% 29.99 in 10.0 mi SW 3.5 mph - N/A   Clear
10:53 PM 73.0 °F - 62.1 °F 68% 30.01 in 10.0 mi SSW 3.5 mph - N/A   Clear
11:53 PM 69.1 °F - 62.1 °F 78% 30.01 in 10.0 mi South 5.8 mph - N/A   Clear